Wetbulb
37.06 34.52 32.63 35.03 35.76 34.15 32.63 30.91 31.89 32.78 36.62 34.85 35.72 35.14 38.50 38.72 34.90 32.56 31.73 32.10 32.06 32.21 33.33 33.47 33.53 33.03 33.53 34.29 34.88 35.44 36.37 36.84 39.03 40.98 41.88 41.55 37.75 40.02 39.16 38.74 38.89 39.87 40.73 43.00
34.18 32.02 37.55 37.02 36.28 34.82 32.35 30.65 30.86 34.05 35.96 35.29 34.59 34.12 37.29 35.56 34.45 33.84 32.74 31.77 31.83 31.23 31.49 32.29 31.72 31.38 31.30 31.70 32.59 34.06 35.16 35.70 36.95 37.30 37.36 37.73 37.02 36.94 37.38 36.89 35.68 36.11 36.93 37.74
32.96 36.70 37.91 36.80 33.82 33.07 31.76 31.26 30.20 32.61 33.70 33.54 31.39 30.90 34.11 33.06 33.82 33.94 33.38 32.66 31.84 30.81 30.23 29.95 30.19 29.39 29.49 29.58 29.84 32.33 33.41 34.58 35.54 36.31 36.87 36.13 35.62 34.42 33.63 32.66 32.29 32.35 33.45 34.49
33.81 37.29 37.44 33.59 33.75 34.10 29.85 34.83 34.67 33.10 30.94 28.17 30.92 24.95 30.16 31.75 31.01 31.68 31.31 30.31 30.17 30.30 30.24 29.99 29.24 28.66 28.54 28.68 29.25 30.17 31.30 32.36 33.36 34.13 33.44 31.97 30.80 29.21 29.35 29.37 30.24 30.95 31.44 31.57
35.56 34.49 33.29 33.64 34.82 35.94 33.95 35.31 33.71 31.77 29.20 26.43 27.11 25.19 29.34 31.47 30.27 29.94 30.16 29.96 29.61 29.34 29.55 29.35 28.90 29.55 28.60 28.44 27.45 27.68 29.17 29.75 30.15 30.44 31.03 30.46 28.77 28.62 28.11 28.06 28.56 28.67 29.49 30.04
35.35 36.39 36.41 36.57 34.99 36.14 35.78 33.66 32.02 29.27 28.09 22.07 28.93 28.53 26.49 28.77 31.17 29.69 30.63 30.48 30.51 30.13 29.70 28.61 29.23 29.11 27.92 27.50 27.35 27.26 27.81 27.79 28.42 28.77 28.42 27.91 27.10 26.47 26.97 26.35 26.66 26.90 27.52 28.10
32.68 34.45 35.57 36.13 33.06 32.85 32.46 30.62 25.21 23.07 21.27 23.19 27.29 24.88 29.04 30.48 30.88 31.57 31.70 30.38 30.08 30.05 28.87 28.28 27.45 27.04 27.09 26.79 27.21 28.13 27.24 26.74 26.92 27.24 27.07 26.79 25.98 25.65 25.31 25.16 25.12 25.06 25.21 25.13
29.31 29.05 34.51 36.48 36.17 32.73 30.94 31.58 26.24 19.90 19.61 23.08 26.52 24.72 30.65 29.73 30.67 31.40 32.89 31.24 30.36 29.30 29.25 28.74 28.49 27.50 27.01 27.24 26.93 27.14 27.03 26.89 27.22 26.88 26.28 26.18 26.09 26.34 25.71 25.00 24.50 24.56 24.31 24.57
29.68 31.40 33.57 34.32 35.28 36.69 30.69 28.65 32.34 26.95 14.88 18.82 26.58 28.62 29.31 29.93 29.04 29.27 29.28 29.83 29.05 29.12 29.18 29.30 29.12 28.05 27.00 26.66 27.12 27.48 27.51 27.38 27.05 26.96 26.71 25.93 25.88 25.15 24.57 24.41 24.44 23.88 24.60 26.11
35.08 30.06 33.27 32.92 35.18 33.93 33.02 34.91 27.71 26.25 18.44 17.41 23.80 24.61 28.26 28.95 29.15 28.42 28.48 28.88 29.16 29.59 29.78 29.76 29.60 28.98 28.59 28.96 29.20 28.53 28.51 27.24 26.83 26.82 26.25 25.75 25.49 25.06 24.22 24.21 23.84 23.63 23.93 24.32
35.27 34.03 29.95 32.48 31.13 30.71 31.24 29.74 30.34 30.06 27.15 22.43 17.06 24.81 29.51 30.38 29.59 28.71 29.41 30.59 29.84 29.91 30.23 30.17 29.76 29.64 28.77 27.92 26.65 26.08 26.08 26.26 25.72 25.78 24.79 24.47 24.00 23.40 23.33 23.22 22.87 22.91 23.16 23.19
36.55 32.33 25.66 30.13 32.04 32.91 31.67 31.60 31.75 28.29 24.27 23.43 24.61 27.96 30.33 30.19 30.54 31.27 30.60 31.13 30.76 30.72 30.34 30.29 30.14 29.20 28.37 27.77 27.04 26.42 25.94 25.57 25.26 24.29 23.98 24.56 23.62 23.53 22.91 22.63 22.90 23.14 22.67 23.34
37.55 30.95 21.82 26.07 29.98 29.89 29.63 30.53 30.78 30.16 28.39 23.12 25.25 26.32 31.05 29.01 29.74 31.33 31.11 30.74 31.01 31.03 29.96 29.35 28.82 28.44 27.58 26.69 26.75 25.90 25.56 25.18 25.48 24.25 23.69 23.55 23.53 22.93 22.61 22.71 23.05 22.99 22.33 21.76
40.84 31.93 28.50 26.96 27.16 30.45 28.10 29.46 29.76 31.31 28.86 29.95 28.98 30.67 28.44 30.30 31.46 31.16 30.84 30.82 30.37 29.99 30.17 28.20 26.44 26.93 26.66 26.53 25.25 24.87 24.62 24.78 25.27 24.07 23.55 23.19 22.81 22.64 22.02 22.15 21.75 21.12 20.61 19.27
38.47 28.84 29.83 30.08 29.27 29.22 29.17 29.23 28.09 28.02 30.16 29.36 30.98 29.13 29.56 32.66 31.78 31.07 31.05 30.55 29.16 29.32 28.51 27.44 27.16 26.69 26.06 24.11 24.03 23.90 24.07 24.18 24.07 23.08 23.10 22.92 23.24 22.03 21.11 20.29 19.30 18.77 18.52 18.09
34.29 31.42 29.59 24.33 29.58 28.70 27.35 29.46 28.03 30.36 30.26 28.28 27.51 27.73 33.23 31.84 29.38 27.69 30.36 30.40 28.44 28.41 29.38 29.20 26.99 26.56 25.52 25.08 24.64 24.96 23.75 23.45 23.51 22.68 22.62 22.22 21.06 20.79 19.41 18.43 17.72 17.28 16.64 15.72
31.67 27.82 23.14 25.94 23.66 25.19 24.78 27.01 28.88 29.11 29.02 30.77 27.36 31.19 23.85 25.52 27.29 27.13 26.63 26.44 27.11 27.50 28.31 28.30 26.74 25.60 25.55 24.72 26.03 23.61 24.19 23.02 21.54 20.88 18.40 18.03 18.14 17.15 16.11 15.52 15.14 14.54 13.36 13.39
30.78 27.19 26.60 20.20 20.80 16.99 24.73 21.22 25.88 30.22 30.05 28.00 23.16 20.79 22.44 23.88 24.55 26.67 25.86 26.05 26.31 26.08 25.49 25.79 26.09 24.52 24.70 24.76 24.08 23.68 23.81 21.73 20.63 18.65 15.80 15.71 15.66 13.42 13.39 12.40 11.62 11.54 11.34 10.52
30.96 28.39 20.94 21.17 18.26 21.84 24.19 22.27 21.63 22.25 22.09 22.74 25.02 24.34 23.86 23.63 20.89 20.73 24.42 24.48 25.15 24.43 25.10 25.01 24.71 24.18 23.07 23.32 23.39 22.22 20.82 20.65 19.32 17.49 16.62 14.83 13.05 10.25 10.27 6.78 8.04 8.84 8.12 7.68
27.77 29.59 29.24 15.74 15.52 15.44 18.96 22.47 24.72 24.88 15.98 19.60 23.04 22.22 19.34 20.49 14.76 19.19 23.94 24.44 24.54 24.69 24.91 25.15 25.09 24.37 23.61 23.02 21.77 20.21 18.84 17.66 16.72 16.62 16.53 13.88 11.62 6.33 5.45 7.87 6.09 6.32 3.37 7.42
20.20 21.01 23.18 19.92 20.39 19.76 20.25 21.41 24.28 14.80 20.05 17.13 19.26 20.29 19.68 18.73 21.91 24.32 24.39 23.40 24.88 25.03 25.08 24.70 23.62 23.38 23.04 20.80 18.89 18.20 16.24 15.66 14.68 13.83 11.78 10.18 9.40 5.28 4.53 3.53 4.03 1.01 -0.10 4.37
18.02 17.76 13.24 15.39 16.18 15.90 22.37 21.59 19.89 23.01 22.09 22.89 22.20 22.67 22.92 23.81 24.61 23.91 24.22 24.35 24.01 24.30 24.70 25.16 23.08 22.43 20.91 18.53 17.65 16.32 15.07 13.81 11.49 9.73 8.90 8.06 3.43 5.39 4.06 -5.39 -3.91 -4.54 -5.09 -3.95
16.77 19.91 16.28 19.53 18.39 22.52 24.23 23.73 25.63 25.33 22.89 22.67 23.17 24.26 24.34 23.39 23.10 23.90 23.26 22.86 23.48 23.74 23.84 23.31 21.83 21.01 18.26 15.47 15.60 14.55 12.93 10.72 7.97 5.25 4.60 2.21 3.03 3.44 3.80 -2.73 -0.60 -3.72 -7.19 -5.89
17.95 19.97 16.83 17.58 19.43 21.20 23.50 25.12 24.65 24.88 25.07 25.57 25.40 24.57 24.19 24.15 24.14 23.55 22.87 22.59 22.23 21.58 21.75 18.61 15.27 15.41 15.07 11.38 13.30 10.38 9.70 8.08 1.55 -1.67 2.82 3.64 2.02 1.95 1.71 3.01 2.54 -5.29 -5.93 -2.85
20.18 19.55 15.55 15.97 20.18 21.61 23.66 24.31 26.20 25.50 25.25 24.02 24.05 24.98 24.88 23.53 23.07 22.31 21.78 21.17 21.37 21.41 18.87 16.05 17.09 16.99 15.56 10.72 8.35 5.78 6.27 3.44 0.01 -0.61 3.02 2.57 2.85 1.25 1.38 1.21 -0.24 0.75 1.64 2.26
20.69 19.25 17.25 15.29 23.38 23.63 24.43 26.67 26.75 25.06 24.97 24.30 23.50 22.18 22.04 22.76 23.04 22.24 21.68 21.89 21.22 20.34 15.04 13.92 13.38 12.44 8.97 7.55 5.53 1.81 1.19 0.73 -0.50 1.51 2.86 2.64 2.09 1.56 1.03 -0.34 -0.76 6.68 11.32 14.16
MSLP
1018.49 1019.07 1019.06 1018.89 1018.99 1019.25 1019.56 1019.91 1019.67 1018.76 1018.37 1018.45 1018.44 1018.83 1018.71 1019.03 1020.61 1022.30 1023.62 1024.48 1025.18 1025.42 1025.41 1025.10 1025.06 1024.75 1024.57 1023.96 1023.29 1022.75 1022.27 1021.97 1021.19 1021.19 1021.69 1022.18 1023.54 1023.54 1023.78 1024.04 1024.31 1024.19 1024.12 1023.84
1019.21 1018.91 1018.14 1018.65 1019.15 1019.50 1019.79 1020.05 1019.82 1019.39 1018.82 1019.13 1018.96 1019.32 1019.16 1019.90 1021.19 1022.39 1023.58 1024.62 1025.24 1025.70 1025.92 1025.90 1025.51 1025.29 1025.06 1025.29 1024.72 1024.04 1023.33 1022.79 1022.48 1022.02 1022.59 1023.51 1024.06 1024.93 1025.30 1025.23 1024.95 1024.89 1024.97 1025.22
1018.71 1018.11 1018.03 1018.57 1019.10 1019.58 1019.87 1019.91 1019.99 1019.82 1019.50 1019.49 1019.73 1019.79 1019.26 1020.59 1021.62 1022.86 1023.98 1024.82 1025.26 1025.34 1025.54 1026.06 1026.09 1026.11 1025.86 1025.71 1025.92 1025.04 1024.33 1023.87 1023.68 1023.57 1023.29 1023.71 1024.41 1025.36 1025.80 1026.32 1026.23 1026.17 1025.89 1026.10
1018.73 1017.94 1018.11 1018.47 1018.70 1019.07 1019.57 1019.17 1019.56 1020.08 1020.64 1020.67 1020.29 1020.13 1019.53 1020.26 1021.82 1023.06 1023.93 1024.66 1025.33 1025.81 1026.19 1026.08 1026.04 1025.97 1026.23 1026.46 1026.49 1026.10 1025.51 1024.82 1024.54 1024.41 1024.69 1024.84 1025.50 1026.40 1027.20 1027.39 1027.38 1027.14 1026.85 1026.91
1017.88 1017.88 1018.08 1018.32 1018.22 1018.70 1018.99 1019.16 1019.90 1020.44 1021.07 1021.30 1021.21 1021.65 1019.32 1019.83 1021.46 1022.73 1024.12 1025.28 1026.18 1026.83 1027.03 1026.76 1026.73 1026.34 1026.53 1026.31 1026.58 1026.56 1026.26 1025.87 1025.74 1025.45 1025.52 1026.02 1026.59 1027.36 1027.65 1027.86 1027.77 1027.80 1027.73 1027.76
1017.80 1017.51 1017.57 1017.50 1017.93 1018.24 1018.88 1019.78 1020.68 1021.49 1021.77 1021.83 1020.92 1021.18 1019.97 1020.21 1020.54 1022.12 1023.68 1024.71 1025.52 1026.39 1027.03 1027.75 1027.02 1026.77 1026.85 1026.83 1026.77 1026.81 1026.70 1026.56 1026.60 1026.36 1026.54 1026.68 1027.23 1027.98 1028.30 1028.55 1028.73 1029.00 1028.80 1028.63
1017.81 1017.32 1017.07 1017.11 1017.85 1018.48 1019.01 1020.11 1021.54 1022.49 1022.83 1021.59 1020.86 1021.37 1020.00 1020.31 1020.93 1022.01 1023.22 1024.65 1025.65 1026.25 1026.83 1027.70 1027.70 1027.47 1027.36 1027.31 1027.32 1027.26 1027.32 1027.41 1027.23 1027.17 1027.39 1027.66 1028.07 1028.31 1028.65 1028.91 1029.31 1029.28 1029.39 1029.49
1017.61 1017.41 1016.73 1016.52 1016.85 1017.54 1018.75 1019.47 1020.74 1022.01 1023.22 1022.47 1021.88 1020.85 1019.67 1020.74 1021.48 1021.86 1022.78 1024.31 1025.50 1026.05 1026.31 1027.20 1027.43 1027.60 1027.81 1027.89 1027.82 1027.67 1027.85 1028.03 1027.84 1027.94 1028.26 1028.37 1028.63 1028.93 1029.26 1029.43 1029.71 1029.86 1029.85 1030.07
1016.75 1016.51 1016.31 1016.37 1016.53 1017.13 1018.78 1019.43 1019.82 1021.39 1023.12 1022.84 1021.08 1020.68 1020.55 1020.74 1021.28 1022.37 1023.01 1024.13 1025.32 1025.96 1026.14 1026.66 1027.08 1027.37 1027.67 1027.98 1028.09 1028.01 1027.91 1028.07 1028.34 1028.41 1028.77 1028.90 1029.00 1029.25 1029.39 1029.70 1029.81 1029.98 1030.13 1030.12
1015.50 1016.38 1016.57 1016.83 1016.84 1017.56 1017.74 1018.20 1019.71 1021.17 1022.56 1021.87 1020.27 1020.18 1020.22 1021.23 1021.48 1022.22 1023.06 1023.85 1024.58 1025.35 1025.71 1026.18 1026.82 1027.25 1027.35 1027.53 1027.90 1027.93 1028.10 1028.40 1028.42 1028.46 1028.64 1028.95 1029.27 1029.46 1029.63 1029.70 1030.02 1030.27 1030.54 1030.65
1015.37 1015.93 1017.42 1017.38 1017.39 1017.53 1018.49 1018.64 1019.33 1020.25 1020.97 1020.77 1020.51 1019.37 1018.91 1019.77 1021.28 1022.00 1022.42 1023.31 1023.94 1024.39 1024.94 1025.70 1026.16 1026.57 1026.80 1027.23 1027.51 1027.90 1028.19 1028.38 1028.49 1028.46 1028.72 1029.15 1029.53 1029.81 1029.93 1030.22 1030.55 1030.68 1030.81 1030.82
1015.06 1016.09 1017.32 1017.27 1017.45 1017.46 1017.58 1017.80 1018.28 1019.35 1020.28 1020.24 1020.29 1017.97 1019.11 1019.40 1020.02 1021.31 1021.90 1022.53 1023.18 1023.67 1024.11 1025.02 1025.54 1026.11 1026.63 1026.92 1027.34 1027.66 1027.99 1028.28 1028.40 1028.62 1028.87 1029.24 1029.64 1029.93 1030.19 1030.30 1030.47 1030.57 1030.62 1030.63
1014.56 1015.77 1017.43 1017.94 1018.19 1018.31 1018.06 1017.97 1018.06 1018.55 1018.86 1018.92 1020.12 1018.56 1019.04 1019.56 1020.28 1020.88 1021.64 1021.87 1022.37 1022.93 1023.66 1024.45 1025.19 1025.67 1026.15 1026.74 1027.15 1027.50 1027.77 1028.03 1028.26 1028.61 1029.03 1029.45 1029.67 1029.95 1030.07 1030.20 1030.27 1030.36 1030.42 1030.47
1013.80 1014.91 1015.58 1016.53 1016.95 1017.15 1018.32 1018.01 1018.21 1018.36 1018.62 1018.37 1018.19 1018.80 1019.41 1019.90 1020.54 1020.95 1021.26 1021.46 1021.89 1022.37 1023.00 1023.73 1024.71 1025.18 1025.71 1026.16 1026.61 1027.11 1027.42 1027.65 1028.07 1028.57 1028.95 1029.30 1029.55 1029.80 1029.88 1029.94 1030.15 1030.30 1030.29 1030.25
1014.63 1015.32 1015.93 1016.22 1016.90 1017.26 1017.29 1017.56 1017.80 1018.15 1017.83 1017.93 1017.58 1018.68 1019.01 1019.34 1020.10 1020.61 1020.79 1021.32 1021.78 1022.37 1022.93 1023.42 1023.97 1024.46 1025.15 1025.74 1026.23 1026.54 1026.78 1027.21 1027.65 1028.27 1028.71 1029.01 1029.29 1029.66 1029.91 1029.98 1030.00 1030.01 1030.00 1029.98
1015.52 1016.22 1016.79 1017.60 1017.79 1017.97 1017.76 1017.09 1017.65 1017.77 1017.81 1017.90 1018.54 1018.40 1018.69 1019.36 1020.07 1020.58 1020.95 1021.26 1021.68 1022.21 1022.59 1022.90 1023.30 1023.74 1024.27 1024.80 1025.40 1025.74 1026.23 1026.75 1027.22 1027.86 1028.29 1028.76 1029.23 1029.63 1029.75 1029.73 1029.72 1029.80 1029.95 1030.03
1016.33 1016.91 1017.89 1018.39 1018.90 1018.65 1018.66 1016.85 1017.00 1017.38 1017.37 1017.77 1018.61 1018.17 1019.16 1019.65 1020.10 1020.42 1020.92 1021.34 1021.77 1022.05 1022.15 1022.52 1022.86 1023.23 1023.75 1024.19 1024.61 1025.23 1025.47 1026.19 1027.01 1027.53 1028.12 1028.65 1029.14 1029.45 1029.60 1029.65 1029.79 1030.01 1030.14 1030.12
1016.36 1017.01 1018.03 1019.38 1019.71 1018.99 1016.56 1016.27 1016.32 1016.88 1017.56 1018.02 1018.76 1019.04 1019.41 1019.71 1019.90 1020.17 1020.59 1021.16 1021.61 1021.76 1022.03 1022.42 1022.61 1022.91 1023.22 1023.63 1024.34 1024.89 1025.56 1026.11 1026.92 1027.52 1028.09 1028.57 1029.04 1029.39 1029.56 1029.67 1029.98 1030.20 1030.27 1030.29
1016.48 1017.11 1018.38 1019.08 1019.20 1017.62 1015.97 1016.60 1016.94 1017.15 1017.31 1017.78 1018.96 1019.09 1019.64 1020.04 1020.55 1020.59 1020.60 1020.98 1021.21 1021.49 1021.71 1021.96 1022.18 1022.62 1022.94 1023.56 1024.11 1024.70 1025.44 1025.91 1026.59 1027.21 1027.84 1028.50 1028.98 1029.35 1029.50 1029.93 1030.18 1030.32 1030.39 1030.37
1017.38 1017.40 1017.84 1019.25 1018.96 1017.85 1016.02 1016.14 1016.48 1017.14 1017.78 1017.87 1018.22 1019.03 1019.68 1020.40 1020.90 1020.29 1020.29 1020.75 1020.91 1021.09 1021.29 1021.56 1021.96 1022.44 1023.03 1023.29 1023.83 1024.58 1025.27 1025.87 1026.36 1026.94 1027.72 1028.49 1028.98 1029.25 1029.57 1029.86 1030.11 1030.35 1030.55 1030.40
1018.58 1018.61 1017.99 1018.23 1017.97 1017.19 1016.38 1016.54 1016.94 1017.96 1017.60 1017.52 1018.44 1019.02 1019.71 1020.04 1019.67 1019.69 1020.00 1020.26 1020.35 1020.66 1020.93 1021.23 1021.79 1022.38 1022.59 1023.28 1023.92 1024.78 1025.42 1025.91 1026.36 1027.18 1027.90 1028.48 1028.82 1029.06 1029.43 1029.80 1030.15 1030.42 1030.56 1030.38
1017.32 1018.28 1018.73 1018.62 1018.04 1017.07 1016.18 1017.30 1017.33 1016.60 1017.03 1017.54 1018.33 1018.57 1019.10 1018.97 1019.23 1019.65 1019.88 1020.21 1020.45 1020.57 1020.71 1021.10 1021.70 1022.14 1022.51 1023.21 1023.92 1024.74 1025.40 1025.83 1026.63 1027.35 1027.89 1028.38 1028.77 1029.06 1029.40 1029.87 1030.22 1030.42 1030.50 1030.47
1017.03 1015.92 1016.48 1016.61 1015.51 1015.51 1015.70 1015.45 1015.76 1016.00 1016.84 1017.60 1017.86 1017.98 1018.11 1018.71 1019.07 1019.34 1019.67 1019.99 1020.02 1020.20 1020.57 1020.92 1021.57 1021.96 1022.51 1023.13 1023.73 1024.65 1025.07 1025.93 1026.87 1027.53 1028.11 1028.49 1028.68 1029.03 1029.42 1029.89 1030.00 1030.40 1030.35 1030.23
1015.96 1015.63 1015.73 1016.16 1015.62 1015.48 1015.47 1015.48 1015.79 1016.18 1016.50 1016.69 1016.77 1017.26 1017.90 1018.40 1018.19 1018.65 1019.14 1019.51 1019.73 1019.98 1020.45 1020.85 1021.78 1022.16 1022.65 1023.14 1023.78 1024.45 1025.21 1026.00 1026.94 1027.79 1028.10 1028.30 1028.58 1028.82 1029.13 1029.45 1029.59 1029.75 1029.80 1029.50
1014.44 1014.97 1015.28 1015.41 1015.25 1015.25 1015.17 1015.25 1015.20 1015.71 1015.84 1016.26 1016.67 1017.07 1017.28 1017.73 1018.01 1018.48 1018.84 1019.07 1019.43 1019.75 1020.25 1020.85 1021.27 1021.71 1022.20 1023.07 1024.01 1024.77 1025.44 1026.16 1027.15 1027.61 1027.84 1028.08 1028.29 1028.62 1028.97 1029.07 1029.00 1028.74 1028.61 1028.42
1013.41 1013.22 1013.90 1013.68 1013.52 1013.73 1013.96 1013.90 1014.06 1014.95 1015.28 1015.49 1016.20 1016.61 1016.98 1017.52 1017.64 1018.03 1018.47 1018.60 1019.00 1019.44 1020.00 1020.58 1021.02 1021.62 1022.31 1023.19 1024.13 1025.03 1025.49 1026.15 1026.95 1027.40 1027.66 1027.86 1028.09 1028.38 1028.64 1028.72 1028.41 1027.94 1027.18 1026.54
Wind_Speed
2 4 9 13 10 4 5 5 6 3 3 2 7 7 13 5 6 7 6 6 6 6 4 6 7 8 9 10 10 10 11 10 7 6 4 7 6 7 10 10 14 14 13 14
5 7 10 5 5 5 3 4 7 6 3 4 7 9 11 1 2 3 9 7 6 5 5 7 8 8 9 9 9 10 10 10 8 4 4 4 4 7 8 8 12 13 14 13
8 6 7 6 5 6 5 8 4 8 3 3 2 7 8 3 3 6 6 5 5 7 7 5 6 7 7 9 9 9 8 9 9 7 5 5 5 4 6 9 9 12 13 13
6 4 5 4 6 8 6 9 7 5 3 5 1 7 5 4 4 4 7 7 7 6 4 4 5 5 6 7 7 8 8 9 9 8 11 15 10 9 3 4 5 8 12 12
7 5 4 5 6 7 7 5 6 4 3 1 3 2 9 6 6 7 6 5 4 3 3 5 5 6 5 6 6 6 7 10 9 9 9 10 12 7 3 4 8 8 9 11
5 2 6 7 2 4 7 6 6 5 3 2 10 8 5 5 4 4 5 8 9 7 6 2 3 5 5 6 7 6 7 9 9 10 11 12 12 7 8 7 7 5 5 7
2 5 3 3 5 2 4 6 2 4 2 7 1 2 6 2 2 1 12 10 8 7 7 5 4 4 5 5 5 6 6 8 7 10 10 9 8 8 8 6 5 6 4 4
7 5 10 6 7 7 7 8 7 7 3 5 3 7 5 2 4 5 7 10 8 7 7 8 7 6 6 5 5 6 6 7 6 7 8 7 7 5 5 6 4 4 4 4
6 5 1 3 4 7 6 5 4 5 2 2 5 5 3 1 3 4 8 10 9 8 8 8 7 6 6 5 6 6 6 6 6 7 6 6 6 6 6 6 5 4 5 5
7 2 0 2 3 4 4 7 4 2 3 6 4 5 6 6 7 6 8 10 9 8 8 7 6 7 6 6 5 5 5 6 6 6 6 5 6 6 6 6 7 6 5 5
5 4 1 4 6 9 3 2 3 3 4 5 3 6 6 6 8 12 11 10 10 10 9 8 7 8 7 6 6 6 6 6 6 6 6 6 5 6 6 5 4 3 2 3
7 5 5 8 2 2 3 8 8 7 7 3 2 13 1 3 9 9 8 8 8 9 9 8 8 7 7 7 6 7 6 6 6 6 6 6 6 5 4 4 3 3 4 3
10 3 2 6 2 2 5 5 3 4 4 8 5 9 1 1 5 8 9 9 9 9 8 8 7 9 9 7 7 7 7 7 6 6 6 5 5 4 3 2 1 2 2 3
6 6 9 10 7 6 5 6 6 6 7 8 14 17 4 5 7 6 7 7 8 8 9 7 5 8 8 8 8 7 7 7 6 6 6 6 5 4 3 2 2 1 1 2
4 5 3 2 3 5 6 7 9 10 11 13 13 16 7 12 9 10 7 6 5 7 7 8 8 8 7 7 7 7 7 7 7 7 6 6 5 4 4 3 2 2 3 4
2 3 3 2 2 4 7 11 11 16 6 6 4 13 7 6 5 4 8 8 6 8 7 7 7 8 11 11 10 9 8 8 7 7 7 6 4 4 3 2 3 3 4 4
7 7 4 8 4 6 12 13 16 7 5 10 15 14 3 5 8 8 8 6 8 8 7 6 7 7 7 10 9 9 9 6 7 6 6 5 5 3 2 2 4 4 4 4
8 7 3 3 3 9 3 2 3 14 9 9 1 5 7 6 5 5 6 8 9 7 7 6 6 6 7 5 6 4 6 7 7 6 6 5 4 3 2 3 3 3 2 4
1 6 4 5 7 8 7 6 9 10 11 11 11 7 5 5 4 5 6 7 8 8 8 7 6 5 4 6 6 6 6 7 7 8 6 5 4 3 2 2 0 1 3 4
3 3 6 5 4 8 3 2 5 5 7 9 9 10 8 6 3 5 5 7 9 8 6 7 6 3 3 4 6 6 6 7 9 6 5 5 3 3 2 1 2 1 2 7
4 0 8 6 7 8 5 5 4 6 8 4 7 6 7 5 6 5 4 6 7 7 9 5 6 7 7 5 6 7 6 9 5 5 5 4 3 3 1 2 1 1 3 6
9 9 5 2 3 12 7 4 9 6 3 6 6 7 8 7 6 6 6 6 8 9 7 7 6 7 5 6 7 7 8 6 6 5 5 3 2 1 1 1 2 3 3 5
3 8 9 12 8 1 11 4 4 5 7 6 6 8 9 7 7 8 8 9 9 9 8 5 7 7 6 6 7 7 5 7 6 5 4 2 0 1 1 2 3 2 2 3
5 3 3 4 3 6 9 5 3 7 8 8 7 6 7 9 8 8 7 7 7 6 9 5 5 6 7 6 6 4 7 6 6 4 4 2 2 2 2 2 3 2 3 4
6 8 6 2 1 2 7 8 8 9 9 5 5 7 10 6 8 8 7 7 7 8 6 5 8 8 8 8 6 6 6 7 5 3 3 3 2 3 3 4 4 5 5 7
7 8 6 6 8 7 8 12 12 11 10 10 10 7 7 8 10 7 9 8 7 8 4 5 5 5 5 6 7 6 6 6 6 4 3 3 3 3 3 3 5 11 15 18
Wind_Direction
15 119 208 199 199 155 150 177 221 252 237 154 237 245 263 292 107 139 147 123 93 64 11 25 12 7 5 13 19 19 31 12 37 45 45 57 48 50 52 49 39 36 32 32
52 225 223 128 172 182 126 176 249 289 240 161 269 261 255 322 71 196 157 149 130 107 46 18 20 20 26 5 359 14 31 33 38 60 77 70 83 57 54 44 46 42 39 32
170 216 134 155 168 165 200 210 205 220 348 254 315 274 252 71 78 61 81 125 144 147 123 64 37 25 21 27 358 13 24 44 45 48 86 92 77 53 43 33 41 36 43 41
231 274 191 170 211 146 219 194 187 216 111 240 157 273 290 165 115 132 164 170 165 146 114 99 89 68 40 28 5 10 27 45 48 56 74 78 86 89 55 60 50 47 43 44
238 175 172 204 216 164 227 139 164 160 170 99 267 330 258 144 215 200 197 173 162 160 132 120 95 80 51 52 36 18 35 49 46 57 74 87 86 82 65 53 61 44 41 40
230 270 165 201 108 176 130 74 46 47 104 247 223 185 265 194 210 144 161 175 171 168 154 139 105 94 70 50 53 41 57 58 51 66 68 79 84 80 75 56 55 31 30 35
197 223 187 163 106 74 93 94 330 335 333 235 14 167 255 173 65 223 185 174 173 163 160 173 150 126 106 93 81 75 66 70 64 79 77 80 88 89 89 77 67 59 41 26
169 258 166 190 188 172 177 160 164 223 222 274 349 236 247 338 341 297 168 156 164 170 168 187 185 165 156 145 127 117 108 101 83 83 81 82 85 87 80 75 71 64 60 43
153 268 152 160 143 144 188 182 161 103 100 33 211 301 272 80 62 87 135 152 179 189 186 192 191 183 174 168 168 155 130 110 102 99 95 84 85 85 84 77 71 61 44 26
205 135 152 131 100 25 171 164 98 14 265 260 252 250 233 245 216 170 171 186 190 192 194 200 193 191 192 187 173 146 139 137 133 119 108 95 87 84 79 65 56 47 34 21
148 132 236 104 208 174 139 185 74 131 165 191 274 253 202 222 183 193 196 199 195 193 198 199 196 200 189 178 169 165 156 149 140 125 113 103 91 86 85 84 82 67 52 20
193 130 169 196 169 149 179 191 165 192 225 247 147 263 37 298 191 185 192 196 197 202 197 198 202 188 187 186 180 182 172 165 165 152 140 138 134 128 108 91 66 39 24 6
178 185 73 354 47 333 213 203 165 105 72 193 216 265 359 36 174 196 193 198 202 204 201 206 196 197 194 192 190 185 185 188 177 168 159 163 162 141 127 120 68 19 351 344
152 166 167 209 189 140 186 203 184 187 223 238 241 268 184 225 206 195 211 204 208 203 204 207 193 204 196 196 193 190 198 194 182 180 179 177 177 176 165 135 115 73 353 12
164 215 173 204 163 183 204 204 175 195 212 222 257 232 177 206 206 214 211 214 205 216 218 211 213 208 199 191 197 201 203 191 185 181 181 191 179 173 151 133 123 57 43 22
346 197 115 282 169 223 261 234 189 211 206 242 223 262 175 218 225 192 217 220 232 243 237 226 216 196 200 198 202 200 200 201 175 187 190 174 168 164 144 109 46 38 20 6
161 141 115 243 80 59 272 223 212 203 191 216 228 238 146 207 212 217 229 211 216 223 230 237 226 209 200 197 200 202 207 170 185 177 164 162 158 154 101 64 41 18 356 345
157 127 142 137 87 228 251 104 148 213 233 207 32 218 197 183 193 197 203 195 215 211 211 219 220 214 214 200 202 196 170 174 173 171 165 165 160 145 121 62 43 344 338 339
299 130 153 183 199 322 266 181 160 165 244 176 207 226 189 133 119 265 206 208 205 201 206 207 199 188 181 203 204 182 171 166 165 180 175 170 161 144 76 60 55 325 335 328
76 44 207 133 198 234 295 111 109 87 267 204 181 202 156 132 139 250 215 202 217 215 196 191 184 184 212 226 166 161 182 175 193 167 159 150 148 132 97 58 11 64 331 304
127 110 214 210 229 273 216 176 143 136 257 172 169 158 147 170 195 215 186 208 210 196 199 189 180 209 224 173 152 187 167 203 146 134 133 142 124 95 55 37 22 329 294 300
157 163 198 119 228 267 151 59 171 201 18 148 173 171 177 209 237 228 229 237 211 210 207 207 208 224 209 174 162 181 196 142 138 141 144 138 101 15 42 62 292 302 295 294
236 191 182 189 201 67 194 172 187 152 154 196 182 198 194 201 217 224 225 222 219 214 223 208 208 223 198 177 174 186 173 145 145 141 154 170 209 278 264 255 282 288 242 263
254 161 200 96 197 200 207 226 208 197 204 195 206 177 174 211 221 236 229 229 222 221 233 207 167 211 222 183 173 162 146 139 138 157 189 203 235 291 257 272 262 217 240 262
194 136 152 250 248 88 271 234 231 218 231 201 175 202 214 200 244 224 240 231 228 228 218 185 201 212 218 161 157 146 142 138 154 163 204 225 229 238 272 259 240 252 246 240
176 170 163 206 196 169 209 219 217 213 221 216 207 236 230 195 229 212 237 231 226 232 191 202 205 193 172 158 152 156 151 154 159 185 201 214 221 227 253 264 283 279 283 285